STARLINK-3343 (50822 NORAD) Tracking and Keplerian Element Data

This shows tracking and keplerian element data for the satellite.

Feedback or suggestion? Click here.




ElementValue
Catalog50822
NameSTARLINK-3343
Epoch Orbit2194
Epoch Day140.58334491
Epoch Year2022
RAAN285.0555
Inclination53.2175
Eccentricity0.0001978
Argument of Perigee40.0474
Mean Anonmoly106.4047
Mean Motion15.08838055
Decay Rate-1.93E-05
L11 50822U 22001V 22140.58334491 -.00001930 00000+0 -10319-3 0 9999
L22 50822 53.2175 285.0555 0001978 40.0474 106.4047 15.08838055 21947

Live tracking and technical data element details for STARLINK-3343 (NORAD 50822). STARLINK-3343 can be tracked NOW for your location showing map with azimuth and elevation plus other details from your city location.

Track the satellite on the map from your city or location and see movement details for azimuth, elevation, latitude, longitude, range, height, and movement on the map or in text.







IsCatalogInMostPopularTable: catalog: 50822, numindb: 20
Update: records affected: 1



GetName: 50822 STARLINK-3343

Hit Count: updated at: Mon, 23 May 2022 20:44:51 GMT